Regional Weather Roundup
Issued by NWS Huntsville, AL

Home | Current Version | Previous Version | Text Only | Print | Product List | Glossary On
Versions: 1 2 3 4 5 6 7 8 9 10 11 12 13 14 15 16 17 18 19 20 21 22 23 24 25 26 27
000
ASUS44 KHUN 281610
RWRHUN

WEATHER ROUNDUP FOR THE TENNESSEE VALLEY
NATIONAL WEATHER SERVICE HUNTSVILLE AL
1100 AM CDT SAT MAY 28 2022

ALZ001>004-281700-
NORTHWEST ALABAMA

CITY           SKY/WX    TMP DP  RH WIND       PRES   REMARKS
SHOALS AIRPORT CLOUDY    69  58  67 CALM      30.00F
$$

ALZ005>007-016-281700-
NORTH CENTRAL ALABAMA

CITY           SKY/WX    TMP DP  RH WIND       PRES   REMARKS
CULLMAN AG STN   N/A     63 N/A N/A CALM        N/A
DECATUR AP     PTSUNNY   72  56  57 CALM      30.00S
HUNTSVILLE AP  PTSUNNY   73  59  61 NW6       29.99S
HUN NWS/UAH      N/A     71  58  62 N3          N/A
MERIDIANVILLE  SUNNY     73  58  60 N6        30.01S
VINEMONT AP    PTSUNNY   68  59  73 CALM      30.01F
$$

ALZ008>010-281700-
NORTHEAST ALABAMA

CITY           SKY/WX    TMP DP  RH WIND       PRES   REMARKS
ALBERTVILLE    MOSUNNY   72  55  56 SW3       30.00S
FORT PAYNE     PTSUNNY   72  57  59 CALM      29.98S
SCOTTSBORO AP  MOSUNNY   73  61  64 VRB3      29.99S
$$

TNZ076-096-097-281700-
SOUTHEASTERN MIDDLE TENNESSEE

CITY           SKY/WX    TMP DP  RH WIND       PRES   REMARKS
FAYETTEVILLE   PTSUNNY   70  59  68 NE6G12    30.02S
TULLAHOMA      PTSUNNY   68  55  64 CALM      30.00R
WINCHESTER     MOSUNNY   70  57  64 VRB6      29.99S
$$

...SURROUNDING SITES...

CITY           SKY/WX    TMP DP  RH WIND       PRES   REMARKS
ATLANTA        MOSUNNY   75  55  49 NW6       29.97S
ANNISTON       PTSUNNY   74  59  59 CALM      29.98F
BIRMINGHAM     MOSUNNY   74  56  53 VRB3      30.01S
CHATTANOOGA    MOSUNNY   73  56  54 E7        29.98F
CORINTH        PTSUNNY   72  55  56 VRB3      30.01S
DALTON         MOSUNNY   73  55  53 N3        29.99F
GADSDEN        PTSUNNY   74  60  61 VRB3      29.99F
GOLDEN TRNGL   PTSUNNY   72  59  63 VRB7      30.01S
HALEYVILLE     PTSUNNY   70  57  63 CALM      30.03S
JACKSON TN     MOSUNNY   68  56  65 CALM      30.03R
MEMPHIS        MOSUNNY   74  57  55 VRB3      30.02S
NASHVILLE      CLOUDY    68  55  63 SE5       30.02S
OXFORD MS      MOSUNNY   70  55  60 VRB5      30.03S
ROME           PTSUNNY   76  57  51 MISG      29.97
SAVANNAH       CLOUDY    68  59  73 CALM      30.00S
SELMER         CLOUDY    68  57  68 NE3       30.01S
TUPELO         PTSUNNY   74  58  57 CALM      30.00F
TUSCALOOSA     MOSUNNY   75  60  59 SW5       29.99S
$$




USA.gov is the U.S. government's official web portal to all federal, state and local government web resources and services.